{"data":{"norad_id":69577,"intl_designator":"2026-137F","name":"HULIANWANG DIGUI-174","alt_names":[],"object_type":"PAYLOAD","status":"ACTIVE","operator":null,"country":"PRC","launch_date":"2026-06-17","launch_site_code":"WSC","launch_vehicle":null,"mission":null,"orbit_class":"UNKNOWN","rcs_meters":null,"size_class":null,"mass_kg":null,"dimensions":null,"purposes":[],"wikipedia_slug":null,"has_3d_model":false,"image_url":null,"decayed_at":null,"tle_current":{"epoch":"2026-09-19T23:58:36.554016Z","epoch_age_seconds":72383,"freshness":"FRESH","line1":"1 69577U 26137F   26262.99903419 -.00000084  00000+0  86313-4 0  9992","line2":"2 69577  50.0012 255.7424 0000285 349.9788  10.1078 13.29325327 12957","mean_motion":13.29325327,"eccentricity":2.85e-5,"inclination_deg":50.0012,"raan_deg":255.7424,"arg_perigee_deg":349.9788,"mean_anomaly_deg":10.1078,"bstar":8.6313e-5,"rev_number":1295,"period_min":108.32562735036,"perigee_km":1149.0945802612,"apogee_km":1149.5236446897,"semimajor_km":7527.4461124755,"source":"CELESTRAK","updated_at":"2026-09-20T09:00:24.994093Z"}}}